Location: Roc des P�zouls
(43.9667°N, 3.5500°E)
Time: 08:47:24
(UTC+00:00)

Cosmos 1484 Rocket - Pass Details

Date: 14 November 2019
Orbit: 507 x 559 km, 97.4° (Epoch: 07 December)

Event Time Altitude Azimuth Distance (km) Brightness Sun altitude
Rises 04:30:08 0° 17° (NNE) 2,741 6.6 -23.2°
Reaches altitude 10° 04:32:19 10° 24° (NNE) 1,847 5.7 -22.8°
Maximum altitude 04:36:12 48° 99° (E) 739 3.8 -22.1°
Drops below altitude 10° 04:40:04 10° 174° (S) 1,840 5.6 -21.4°
Sets 04:42:15 0° 180° (S) 2,730 6.4 -21.0°
